Regional Weather Roundup
Issued by NWS Burlington, VT

Home | Current Version | Previous Version | Text Only | Print | Product List | Glossary On
Versions: 1 2 3 4 5 6 7 8 9 10 11 12 13 14 15 16 17 18 19 20 21 22 23 24 25 26 27 28 29 30 31 32 33 34 35 36 37 38 39 40 41 42 43 44 45 46 47 48 49 50
000
ASUS41 KBTV 300730
RWRBTV
VERMONT REGIONAL WEATHER ROUNDUP
NATIONAL WEATHER SERVICE BURLINGTON VT
300 AM EDT SAT MAY 30 2015

NOTE: "FAIR" INDICATES FEW OR NO CLOUDS BELOW 12,000 FEET WITH NO
SIGNIFICANT WEATHER AND/OR OBSTRUCTIONS TO VISIBILITY.

* THESE REPORTS ARE NOT UNDER NWS QUALITY CONTROL AND/OR DO NOT
  REPORT WEATHER SUCH AS PRECIPITATION AND FOG.

VTZ001>019-300800-
_____VERMONT_____


CITY           SKY/WX    TMP DP  RH WIND       PRES   REMARKS
BURLINGTON     PTSUNNY   70  56  61 S15G23    30.07F
MONTPELIER     SUNNY     63  56  78 S5        30.18S
MORRISVILLE    SUNNY     56  53  90 S5        30.12F
ST. JOHNSBURY*   N/A     60  56  86 MISG      30.12F
LYNDONVILLE*     N/A     61  57  86 CALM      30.16S
MIDDLEBURY*      N/A     69  57  65 S7        30.12S
RUTLAND*       SUNNY     61  54  77 SE6       30.15S
SPRINGFIELD    SUNNY     56  54  93 CALM      30.17F
HIGHGATE*        N/A     69  57  64 S9        30.03F
NEWPORT*         N/A     60  56  84 S5        30.11F
BENNINGTON     SUNNY     68  56  65 W5        30.16F
SUTTON*          N/A     59 N/A N/A MISG        N/A
GALLUP MILLS*    N/A     50 N/A N/A MISG        N/A
MT. MANSFIELD*   N/A     57 N/A N/A CALM        N/A

_____LAKE CHAMPLAIN_____


CITY           SKY/WX    TMP DP  RH WIND       PRES   REMARKS
BURTON ISLAND*   N/A     68  59  73 SE13        N/A
COLCHESTER RF*   N/A     63  57  82 S21         N/A
DIAMOND ISL*     N/A     64  59  82 S1          N/A

$$

NYZ007-026>031-035-052-083-300800-
_____NORTHERN NEW YORK_____


CITY           SKY/WX    TMP DP  RH WIND       PRES   REMARKS
PLATTSBURGH    SUNNY     55  54  96 CALM      30.05F
SARANAC LAKE   MOSUNNY   51  50  96 CALM      30.09F
MASSENA        PTSUNNY   68  56  65 S6        29.99F
OGDENSBURG*    MOSUNNY   72  59  64 SW8       29.98F
POTSDAM*       SUNNY     73  61  64 S9        30.00F
STARK FALLS*     N/A     68 N/A N/A SE12        N/A
WATERTOWN      CLOUDY    75  60  59 S10       30.00F
FT DRUM        PTSUNNY   75  63  64 SW17      30.01F
ALBANY         MOSUNNY   68  57  68 S9        30.14F
GLENS FALLS    SUNNY     58  55  90 CALM      30.13F

$$
NHZ002-005-011-300800-
_____NEW HAMPSHIRE_____


CITY           SKY/WX    TMP DP  RH WIND       PRES   REMARKS
LEBANON        SUNNY     58  55  90 NE3       30.15F
KEENE          SUNNY     57  55  94 CALM      30.19S
MT WASHINGTON  FOG       46  46 100 W40         N/A  VSB 1/8
PLYMOUTH       FOG       56  56 100 CALM      30.17F VSB 1/2
WHITEFIELD     SUNNY     53  50  89 CALM      30.15F

$$

_____REGIONAL QUEBEC LOCATIONS_____


CITY           SKY/WX    TMP DP  RH WIND       PRES   REMARKS
MONTREAL       PTSUNNY   68  54  60 SE10      29.99F
QUEBEC CITY    SUNNY     55  50  82 CALM      30.03F
SHERBROOKE     SUNNY     52 N/A N/A CALM      30.08F

_____REGIONAL ONTARIO LOCATIONS_____


CITY           SKY/WX    TMP DP  RH WIND       PRES   REMARKS
OTTAWA         PTSUNNY   70  57  64 S12       29.96F

______KEY______
VSB  - VISIBILITY IN MILES
WCI  - WIND CHILL INDEX
HX   - HEAT INDEX
$$
NNNN


USA.gov is the U.S. government's official web portal to all federal, state and local government web resources and services.